This demonstration page uses our WeatherBlox Daily Observations layout. Learn more.

Hourly Observations for August 27, 2018

Temp ( °F °C ) Dew Point ( °F °C ) Humidity (%) Winds ( mph kmh ) Pressure ( in mb ) Visibility ( mi km ) Precip ( " mm )
12:15 am 00:15 Clear 71 21.8 68 20 90 90 SE 8 13 29.65 1004 10 16.09344 0 0
12:35 am 00:35 Clear 72 22.1 67 19.5 85 85 SSE 5 7 29.65 1004 10 16.09344 0 0
12:55 am 00:55 Clear 71 21.7 67 19.2 86 86 S 7 11 29.65 1004 10 16.09344 0 0
1:15 am 01:15 Clear 72 22.1 66 19 83 83 S 10 17 29.62 1003 10 16.09344 0 0
1:35 am 01:35 Clear 72 22.4 66 18.7 80 80 S 13 20 29.62 1003 10 16.09344 0 0
1:55 am 01:55 Clear 73 22.8 65 18.6 77 77 S 15 24 29.62 1003 10 16.09344 0 0
2:15 am 02:15 Clear 73 23 65 18.6 76 76 S 17 28 29.62 1003 10 16.09344 0 0
2:35 am 02:35 Clear 74 23.3 65 18.6 75 75 S 16 26 29.62 1003 10 16.09344 0 0
2:55 am 02:55 Clear 74 23.6 65 18.3 72 72 S 17 28 29.62 1003 10 16.09344 0 0
3:15 am 03:15 Clear 74 23.3 64 18 72 72 S 13 20 29.62 1003 10 16.09344 0 0
3:35 am 03:35 Clear 73 23 64 17.8 73 73 S 10 17 29.62 1003 10 16.09344 0 0
3:55 am 03:55 Clear 73 22.7 64 17.5 73 73 S 9 15 29.62 1003 10 16.09344 0 0
4:15 am 04:15 Clear 73 22.9 63 17.4 71 71 S 12 19 29.62 1003 10 16.09344 0 0
4:35 am 04:35 Clear 73 22.6 63 17.2 72 72 S 10 17 29.59 1002 10 16.09344 0 0
4:55 am 04:55 Clear 72 22.2 63 17.1 73 73 S 9 15 29.59 1002 10 16.09344 0 0
5:15 am 05:15 Clear 72 22.4 62 16.9 71 71 S 9 15 29.59 1002 10 16.09344 0 0
5:35 am 05:35 Clear 72 22 62 16.8 72 72 S 9 15 29.59 1002 10 16.09344 0 0
5:55 am 05:55 Clear 70 21.1 62 16.7 76 76 Calm 29.62 1003 10 16.09344 0 0
6:15 am 06:15 Clear 69 20.3 62 16.5 79 79 SSE 5 7 29.59 1002 10 16.09344 0 0
6:35 am 06:35 Clear 64 17.7 62 16.7 94 94 ESE 6 9 29.62 1003 10 16.09344 0 0
6:55 am 06:55 Clear 65 18.3 62 16.7 90 90 Calm 29.62 1003 10 16.09344 0 0
7:15 am 07:15 Sunny 63 17.3 62 16.6 96 96 ESE 7 11 29.62 1003 10 16.09344 0 0
7:35 am 07:35 Sunny 64 18 62 16.7 92 92 Calm 29.62 1003 10 16.09344 0 0
7:55 am 07:55 Sunny 65 18.6 63 17.4 93 93 ESE 5 7 29.62 1003 10 16.09344 0 0
8:15 am 08:15 Sunny 68 19.9 64 17.8 88 88 ESE 3 6 29.62 1003 10 16.09344 0 0
8:35 am 08:35 Sunny 70 21.2 64 17.7 81 81 SE 8 13 29.59 1002 10 16.09344 0 0
8:55 am 08:55 Sunny 73 22.5 64 17.9 75 75 SSE 7 11 29.59 1002 10 16.09344 0 0
9:15 am 09:15 Sunny 75 24 63 17.3 66 66 S 13 20 29.53 1000 10 16.09344 0 0
9:35 am 09:35 Sunny 76 24.2 64 18 68 68 S 10 17 29.53 1000 10 16.09344 0 0
9:55 am 09:55 Sunny 77 25.2 64 17.6 63 63 S 13 20 29.56 1001 10 16.09344 0 0
10:15 am 10:15 Sunny 78 25.6 64 17.5 61 61 SSW 12 19 29.56 1001 10 16.09344 0 0
10:35 am 10:35 Sunny 79 26 64 17.8 61 61 SSW 9 15 29.56 1001 10 16.09344 0 0
10:55 am 10:55 Sunny 80 26.4 65 18.2 61 61 SSW 9 15 29.56 1001 10 16.09344 0 0
11:15 am 11:15 Sunny 80 26.5 66 18.7 62 62 SW 5 7 29.56 1001 10 16.09344 0 0
11:35 am 11:35 Sunny 80 26.9 66 18.8 61 61 SSW 6 9 29.56 1001 10 16.09344 0 0
11:55 am 11:55 Sunny 79 26 65 18.6 64 64 SSW 5 7 29.56 1001 10 16.09344 0 0
12:15 pm 12:15 Sunny 80 26.7 67 19.3 64 64 WSW 6 9 29.56 1001 10 16.09344 0 0
12:35 pm 12:35 Sunny 81 27 67 19.4 63 63 SSE 7 11 29.53 1000 10 16.09344 0 0
12:55 pm 12:55 Sunny 82 27.6 68 19.8 63 63 SSW 8 13 29.53 1000 10 16.09344 0 0
1:15 pm 13:15 Sunny 82 27.9 68 20 62 62 WSW 7 11 29.53 1000 10 16.09344 0 0
1:35 pm 13:35 Sunny 83 28.2 68 20.2 62 62 SW 7 11 29.53 1000 10 16.09344 0 0
1:55 pm 13:55 Sunny 83 28.6 68 20.2 60 60 SSW 7 11 29.53 1000 10 16.09344 0 0
2:15 pm 14:15 Sunny 84 29 70 20.9 62 62 WSW 6 9 29.53 1000 10 16.09344 0 0
2:35 pm 14:35 Sunny 84 29.1 69 20.4 59 59 S 3 6 29.53 1000 10 16.09344 0 0
2:55 pm 14:55 Sunny 85 29.7 69 20.4 57 57 SSW 7 11 29.53 1000 10 16.09344 0 0
3:15 pm 15:15 Sunny 87 30.7 69 20.5 55 55 SSW 6 9 29.53 1000 10 16.09344 0 0
3:35 pm 15:35 Sunny 87 30.5 69 20.6 55 55 S 6 9 29.53 1000 10 16.09344 0 0
3:55 pm 15:55 Sunny 88 30.9 68 20.2 53 53 S 7 11 29.53 1000 10 16.09344 0 0
4:15 pm 16:15 Sunny 89 31.5 69 20.3 51 51 S 6 9 29.5 999 10 16.09344 0 0
4:35 pm 16:35 Sunny 89 31.6 68 19.8 50 50 S 7 11 29.5 999 10 16.09344 0 0
4:55 pm 16:55 Sunny 89 31.5 67 19.6 49 49 S 7 11 29.5 999 10 16.09344 0 0
5:15 pm 17:15 Sunny 89 31.9 66 19.1 47 47 S 7 11 29.5 999 10 16.09344 0 0
5:35 pm 17:35 Sunny 90 32 67 19.2 47 47 S 5 7 29.5 999 10 16.09344 0 0
5:55 pm 17:55 Sunny 89 31.9 66 18.9 46 46 S 5 7 29.5 999 10 16.09344 0 0
6:15 pm 18:15 Sunny 89 31.6 68 20 50 50 SSE 3 6 29.5 999 10 16.09344 0 0
6:35 pm 18:35 Sunny 88 31.2 70 21.2 55 55 SSE 7 11 29.53 1000 10 16.09344 0 0
6:55 pm 18:55 Sunny 87 30.5 73 22.5 62 62 SE 5 7 29.53 1000 10 16.09344 0 0
7:15 pm 19:15 Sunny 85 29.7 73 22.8 66 66 SSE 6 9 29.53 1000 10 16.09344 0 0
7:35 pm 19:35 Sunny 84 28.7 73 22.5 69 69 SE 6 9 29.5 999 10 16.09344 0 0
7:55 pm 19:55 Sunny 81 27.1 73 22.6 76 76 ESE 5 7 29.56 1001 10 16.09344 0 0
8:15 pm 20:15 Sunny 77 25.1 73 22.8 87 87 ESE 5 7 29.56 1001 10 16.09344 0 0
8:35 pm 20:35 Clear 76 24.5 71 21.4 83 83 E 8 13 29.56 1001 10 16.09344 0 0
8:55 pm 20:55 Clear 74 23.6 70 20.9 85 85 E 7 11 29.59 1002 10 16.09344 0 0
9:15 pm 21:15 Clear 73 22.7 70 20.9 90 90 E 8 13 29.59 1002 10 16.09344 0 0
9:35 pm 21:35 Clear 72 22.2 69 20.8 92 92 ESE 7 11 29.62 1003 10 16.09344 0 0
9:55 pm 21:55 Clear 72 22.3 69 20.7 91 91 ESE 8 13 29.62 1003 10 16.09344 0 0
10:15 pm 22:15 Clear 73 22.7 69 20.5 87 87 ESE 8 13 29.62 1003 10 16.09344 0 0
10:35 pm 22:35 Clear 73 22.8 69 20.6 87 87 ESE 10 17 29.59 1002 10 16.09344 0 0
10:55 pm 22:55 Clear 72 22.3 69 20.5 90 90 ESE 8 13 29.59 1002 10 16.09344 0 0
11:15 pm 23:15 Clear 71 21.6 68 20.2 92 92 ESE 8 13 29.59 1002 10 16.09344 0 0
11:35 pm 23:35 Clear 73 22.5 68 20.2 87 87 SE 12 19 29.59 1002 10 16.09344 0 0
11:55 pm 23:55 Clear 72 22.3 67 19.3 83 83 SSE 9 15 29.59 1002 10 16.09344 0 0

Powered by AerisWeather